Citadel — PBOK — position and weather

sailwx.info

Track history (hours):
 
Tides and Currents Weather Stations Pressure Air Temp Water Temp Dewpoint Dewpoint Depression Visibility Wind Speed Wind Dir Waves Ship Positions

Citadel

Last reported at 2014-Oct-26 02:29 UTC. Time now 2014-Oct-26 02:59 UTC.
Position N 51°03' E 002°17'.

Length 111 m; draft 4.1 m.

Type: Cargo ship. MMSI: 245977000.

Date/timePositionNaut miles runAvg speedWind from/ knotsBaromVisibWave heightAir tempDewpointWater temp
2014-Oct-26 02:29N 51°03' E 002°17'0 0.0
2014-Oct-26 01:08N 51°03' E 002°17'0 0.0
2014-Oct-26 00:22N 51°03' E 002°17'0 0.0
2014-Oct-25 23:33N 51°03' E 002°17'0 0.0
2014-Oct-25 22:34N 51°03' E 002°17'0 0.0
2014-Oct-25 21:32N 51°03' E 002°17'0 0.0
2014-Oct-25 20:32N 51°03' E 002°17'0 0.0
2014-Oct-25 19:32N 51°03' E 002°17'0 0.0
2014-Oct-25 18:33N 51°03' E 002°17'0 0.0
2014-Oct-25 17:31N 51°03' E 002°17'0 0.0
2014-Oct-25 16:33N 51°03' E 002°17'2 2.4
2014-Oct-25 15:33N 51°03' E 002°21'1312.1
2014-Oct-25 14:30N 51°02' E 002°01'6 5.7
2014-Oct-25 13:28N 51°04' E 001°52'0 0.0
2014-Oct-25 12:33N 51°04' E 001°52'0 0.0
2014-Oct-25 11:33N 51°04' E 001°52'0 0.0
2014-Oct-25 10:33N 51°04' E 001°52'0 0.1
2014-Oct-25 09:32N 51°04' E 001°52'0 0.0
2014-Oct-25 08:32N 51°04' E 001°52'0 0.0
2014-Oct-25 07:28N 51°04' E 001°52'0 0.0
2014-Oct-25 06:31N 51°04' E 001°52'0 0.0
2014-Oct-25 05:27N 51°04' E 001°52'0 0.1
2014-Oct-25 04:30N 51°04' E 001°52'0 0.0
2014-Oct-25 03:33N 51°04' E 001°52'0 0.0
2014-Oct-25 02:32N 51°04' E 001°52'0 0.0
2014-Oct-25 01:32N 51°04' E 001°52'0 0.0
2014-Oct-25 00:28N 51°04' E 001°52'0 0.1
2014-Oct-24 23:31N 51°04' E 001°52'0 0.0
2014-Oct-24 22:33N 51°04' E 001°52'0 0.0
2014-Oct-24 21:33N 51°04' E 001°52'4 4.0
2014-Oct-24 20:32N 51°02' E 001°46'1010.2
2014-Oct-24 19:33N 50°56' E 001°33'317 9.6
2014-Oct-23 10:22N 48°02' W 005°15'911.5
2014-Oct-23 09:33N 47°58' W 005°03'1111.3
2014-Oct-23 08:33N 47°53' W 004°47'  
2014-Oct-19 03:16N 47°08' W 002°24'  
2014-Oct-16 09:33N 47°55' W 004°51'1111.0
2014-Oct-16 08:33N 48°01' W 005°05'  
Track history (hours):
 
Tides and Currents Weather Stations Pressure Air Temp Water Temp Dewpoint Dewpoint Depression Visibility Wind Speed Wind Dir Waves Ship Positions

Citadel

Last reported at 2014-Oct-26 02:29 UTC. Time now 2014-Oct-26 02:59 UTC.
Position N 51°03' E 002°17'.

Length 111 m; draft 4.1 m.

Type: Cargo ship. MMSI: 245977000.

Date/timePositionNaut miles runAvg speedWind from/ knotsBaromVisibWave heightAir tempDewpointWater temp
2014-Oct-26 02:29N 51°03' E 002°17'0 0.0
2014-Oct-26 01:08N 51°03' E 002°17'0 0.0
2014-Oct-26 00:22N 51°03' E 002°17'0 0.0
2014-Oct-25 23:33N 51°03' E 002°17'0 0.0
2014-Oct-25 22:34N 51°03' E 002°17'0 0.0
2014-Oct-25 21:32N 51°03' E 002°17'0 0.0
2014-Oct-25 20:32N 51°03' E 002°17'0 0.0
2014-Oct-25 19:32N 51°03' E 002°17'0 0.0
2014-Oct-25 18:33N 51°03' E 002°17'0 0.0
2014-Oct-25 17:31N 51°03' E 002°17'0 0.0
2014-Oct-25 16:33N 51°03' E 002°17'2 2.4
2014-Oct-25 15:33N 51°03' E 002°21'1312.1
2014-Oct-25 14:30N 51°02' E 002°01'6 5.7
2014-Oct-25 13:28N 51°04' E 001°52'0 0.0
2014-Oct-25 12:33N 51°04' E 001°52'0 0.0
2014-Oct-25 11:33N 51°04' E 001°52'0 0.0
2014-Oct-25 10:33N 51°04' E 001°52'0 0.1
2014-Oct-25 09:32N 51°04' E 001°52'0 0.0
2014-Oct-25 08:32N 51°04' E 001°52'0 0.0
2014-Oct-25 07:28N 51°04' E 001°52'0 0.0
2014-Oct-25 06:31N 51°04' E 001°52'0 0.0
2014-Oct-25 05:27N 51°04' E 001°52'0 0.1
2014-Oct-25 04:30N 51°04' E 001°52'0 0.0
2014-Oct-25 03:33N 51°04' E 001°52'0 0.0
2014-Oct-25 02:32N 51°04' E 001°52'0 0.0
2014-Oct-25 01:32N 51°04' E 001°52'0 0.0
2014-Oct-25 00:28N 51°04' E 001°52'0 0.1
2014-Oct-24 23:31N 51°04' E 001°52'0 0.0
2014-Oct-24 22:33N 51°04' E 001°52'0 0.0
2014-Oct-24 21:33N 51°04' E 001°52'4 4.0
2014-Oct-24 20:32N 51°02' E 001°46'1010.2
2014-Oct-24 19:33N 50°56' E 001°33'317 9.6
2014-Oct-23 10:22N 48°02' W 005°15'911.5
2014-Oct-23 09:33N 47°58' W 005°03'1111.3
2014-Oct-23 08:33N 47°53' W 004°47'  
2014-Oct-19 03:16N 47°08' W 002°24'  
2014-Oct-16 09:33N 47°55' W 004°51'1111.0
2014-Oct-16 08:33N 48°01' W 005°05'  

Dump ship's entire track history